Time,TemperatureF,DewpointF,PressureIn,WindDirection,WindDirectionDegrees,WindSpeedMPH,WindSpeedGustMPH,Humidity,HourlyPrecipIn,Conditions,Clouds,dailyrainin,SoftwareType,DateUTC
2013-03-16 00:08:00,25.1,21.0,29.53,SSW,206,0.0,0.0,85,0.00,,,0.02,weatherlink.com 1.10,2013-03-16 04:08:00,
2013-03-16 00:23:00,25.9,22.0,29.53,SSW,206,0.0,0.0,85,0.00,,,0.02,weatherlink.com 1.10,2013-03-16 04:23:00,
2013-03-16 00:38:00,26.3,23.0,29.53,SSW,206,0.0,0.0,86,0.00,,,0.02,weatherlink.com 1.10,2013-03-16 04:38:00,
2013-03-16 00:53:00,26.6,23.0,29.54,SSW,206,0.0,1.0,85,0.00,,,0.02,weatherlink.com 1.10,2013-03-16 04:53:00,
2013-03-16 01:08:00,26.9,23.0,29.54,SSW,206,0.0,0.0,84,0.00,,,0.02,weatherlink.com 1.10,2013-03-16 05:08:00,
2013-03-16 01:23:00,27.3,23.0,29.54,SSW,206,0.0,0.0,82,0.00,,,0.02,weatherlink.com 1.10,2013-03-16 05:23:00,
2013-03-16 01:38:00,27.4,22.0,29.54,SSW,206,0.0,0.0,79,0.00,,,0.00,weatherlink.com 1.10,2013-03-16 05:38:00,
2013-03-16 01:53:00,27.2,22.0,29.55,SSW,206,0.0,0.0,79,0.00,,,0.00,weatherlink.com 1.10,2013-03-16 05:53:00,
2013-03-16 02:08:00,27.1,22.0,29.55,SSW,206,0.0,0.0,80,0.00,,,0.00,weatherlink.com 1.10,2013-03-16 06:08:00,
2013-03-16 02:23:00,27.2,22.0,29.55,SSW,206,0.0,0.0,79,0.00,,,0.00,weatherlink.com 1.10,2013-03-16 06:23:00,
2013-03-16 02:38:00,27.5,21.0,29.55,NW,315,0.0,2.0,76,0.00,,,0.00,weatherlink.com 1.10,2013-03-16 06:38:00,
2013-03-16 02:54:00,28.7,21.0,29.55,WSW,242,1.0,10.0,73,0.00,,,0.00,weatherlink.com 1.10,2013-03-16 06:54:00,
2013-03-16 03:09:00,28.3,19.0,29.56,NNW,328,0.0,6.0,67,0.00,,,0.00,weatherlink.com 1.10,2013-03-16 07:09:00,
2013-03-16 03:24:00,28.3,18.0,29.56,WNW,293,0.0,13.0,65,0.00,,,0.00,weatherlink.com 1.10,2013-03-16 07:24:00,
2013-03-16 03:39:00,28.3,18.0,29.57,NW,307,4.0,8.0,66,0.00,,,0.00,weatherlink.com 1.10,2013-03-16 07:39:00,
2013-03-16 03:54:00,28.0,16.0,29.58,NW,325,4.0,16.0,61,0.00,,,0.00,weatherlink.com 1.10,2013-03-16 07:54:00,
2013-03-16 04:09:00,26.9,17.0,29.59,North,360,3.0,14.0,67,0.00,,,0.00,weatherlink.com 1.10,2013-03-16 08:09:00,
2013-03-16 04:24:00,26.7,19.0,29.60,West,268,3.0,11.0,72,0.00,,,0.00,weatherlink.com 1.10,2013-03-16 08:24:00,
2013-03-16 04:39:00,26.5,20.0,29.61,NW,323,4.0,14.0,76,0.00,,,0.00,weatherlink.com 1.10,2013-03-16 08:39:00,
2013-03-16 04:54:00,25.7,19.0,29.61,NW,323,3.0,10.0,76,0.00,,,0.00,weatherlink.com 1.10,2013-03-16 08:54:00,
2013-03-16 05:09:00,24.7,18.0,29.62,NNW,327,0.0,6.0,76,0.00,,,0.00,weatherlink.com 1.10,2013-03-16 09:09:00,
2013-03-16 05:24:00,24.1,18.0,29.62,ENE,70,0.0,3.0,78,0.00,,,0.00,weatherlink.com 1.10,2013-03-16 09:24:00,
2013-03-16 05:39:00,23.7,18.0,29.63,WNW,292,0.0,3.0,79,0.00,,,0.00,weatherlink.com 1.10,2013-03-16 09:39:00,
2013-03-16 05:54:00,23.4,18.0,29.64,SW,218,0.0,2.0,80,0.00,,,0.00,weatherlink.com 1.10,2013-03-16 09:54:00,
2013-03-16 06:09:00,23.2,18.0,29.65,WSW,254,2.0,3.0,81,0.00,,,0.00,weatherlink.com 1.10,2013-03-16 10:09:00,
2013-03-16 06:24:00,22.9,18.0,29.66,SSW,200,0.0,2.0,82,0.00,,,0.00,weatherlink.com 1.10,2013-03-16 10:24:00,
2013-03-16 06:39:00,22.6,18.0,29.66,WSW,257,0.0,3.0,83,0.00,,,0.00,weatherlink.com 1.10,2013-03-16 10:39:00,
2013-03-16 06:54:00,22.5,18.0,29.67,WSW,254,0.0,2.0,84,0.00,,,0.00,weatherlink.com 1.10,2013-03-16 10:54:00,
2013-03-16 07:09:00,22.9,19.0,29.68,SW,233,0.0,3.0,83,0.00,,,0.00,weatherlink.com 1.10,2013-03-16 11:09:00,
2013-03-16 07:24:00,23.8,19.0,29.68,SW,227,0.0,3.0,81,0.00,,,0.00,weatherlink.com 1.10,2013-03-16 11:24:00,
2013-03-16 07:40:00,24.5,19.0,29.69,East,90,0.0,6.0,78,0.00,,,0.00,weatherlink.com 1.10,2013-03-16 11:40:00,
2013-03-16 07:55:00,25.5,20.0,29.69,WSW,254,4.0,5.0,78,0.00,,,0.00,weatherlink.com 1.10,2013-03-16 11:55:00,
2013-03-16 08:10:00,26.0,20.0,29.69,South,188,0.0,7.0,78,0.00,,,0.00,weatherlink.com 1.10,2013-03-16 12:10:00,
2013-03-16 08:25:00,26.2,20.0,29.70,North,351,2.0,10.0,76,0.00,,,0.00,weatherlink.com 1.10,2013-03-16 12:25:00,
2013-03-16 08:40:00,26.6,19.0,29.70,NNW,334,0.0,7.0,73,0.00,,,0.00,weatherlink.com 1.10,2013-03-16 12:40:00,
2013-03-16 08:55:00,27.1,19.0,29.70,West,264,4.0,7.0,71,0.00,,,0.00,weatherlink.com 1.10,2013-03-16 12:55:00,
2013-03-16 09:10:00,27.4,19.0,29.70,NW,319,1.0,10.0,70,0.00,,,0.00,weatherlink.com 1.10,2013-03-16 13:10:00,
2013-03-16 09:25:00,27.7,18.0,29.70,North,355,4.0,12.0,68,0.00,,,0.00,weatherlink.com 1.10,2013-03-16 13:25:00,
2013-03-16 09:40:00,28.0,18.0,29.70,WSW,249,0.0,10.0,65,0.00,,,0.00,weatherlink.com 1.10,2013-03-16 13:40:00,
2013-03-16 09:55:00,28.2,18.0,29.70,NW,311,7.0,13.0,67,0.00,,,0.00,weatherlink.com 1.10,2013-03-16 13:55:00,
2013-03-16 10:10:00,28.9,18.0,29.69,NW,320,8.0,11.0,64,0.00,,,0.00,weatherlink.com 1.10,2013-03-16 14:10:00,
2013-03-16 10:25:00,28.3,18.0,29.70,NNW,332,5.0,13.0,66,0.00,,,0.00,weatherlink.com 1.10,2013-03-16 14:25:00,
2013-03-16 10:40:00,29.1,19.0,29.70,NNW,337,5.0,7.0,65,0.00,,,0.00,weatherlink.com 1.10,2013-03-16 14:40:00,
2013-03-16 10:55:00,30.8,18.0,29.69,NNW,348,5.0,9.0,59,0.00,,,0.00,weatherlink.com 1.10,2013-03-16 14:55:00,
2013-03-16 11:10:00,29.3,16.0,29.70,West,281,0.0,10.0,58,0.00,,,0.00,weatherlink.com 1.10,2013-03-16 15:10:00,
2013-03-16 11:25:00,30.0,16.0,29.69,NNW,338,0.0,11.0,57,0.00,,,0.00,weatherlink.com 1.10,2013-03-16 15:25:00,
2013-03-16 11:40:00,29.7,16.0,29.69,NNW,332,7.0,8.0,56,0.00,,,0.00,weatherlink.com 1.10,2013-03-16 15:40:00,
2013-03-16 11:55:00,29.9,15.0,29.69,South,184,4.0,7.0,55,0.00,,,0.00,weatherlink.com 1.10,2013-03-16 15:55:00,
2013-03-16 12:10:00,31.6,16.0,29.69,WNW,288,7.0,7.0,53,0.00,,,0.00,weatherlink.com 1.10,2013-03-16 16:10:00,
2013-03-16 12:25:00,31.0,14.0,29.70,South,182,0.0,12.0,50,0.00,,,0.00,weatherlink.com 1.10,2013-03-16 16:25:00,
2013-03-16 12:40:00,31.3,15.0,29.69,WNW,296,1.0,9.0,52,0.00,,,0.00,weatherlink.com 1.10,2013-03-16 16:40:00,
2013-03-16 12:55:00,29.9,15.0,29.69,WNW,284,2.0,10.0,53,0.00,,,0.00,weatherlink.com 1.10,2013-03-16 16:55:00,
2013-03-16 13:10:00,32.2,14.0,29.69,WSW,255,1.0,13.0,48,0.00,,,0.00,weatherlink.com 1.10,2013-03-16 17:10:00,
2013-03-16 13:26:00,32.0,15.0,29.69,WNW,284,0.0,10.0,49,0.00,,,0.00,weatherlink.com 1.10,2013-03-16 17:26:00,
2013-03-16 13:41:00,31.3,16.0,29.69,NNW,330,3.0,13.0,53,0.00,,,0.00,weatherlink.com 1.10,2013-03-16 17:41:00,
2013-03-16 13:56:00,31.1,14.0,29.68,SW,221,2.0,7.0,49,0.00,,,0.00,weatherlink.com 1.10,2013-03-16 17:56:00,
2013-03-16 14:11:00,33.2,17.0,29.68,WNW,298,1.0,9.0,52,0.00,,,0.00,weatherlink.com 1.10,2013-03-16 18:11:00,
2013-03-16 14:26:00,32.7,15.0,29.68,South,189,7.0,10.0,49,0.00,,,0.00,weatherlink.com 1.10,2013-03-16 18:26:00,
2013-03-16 14:41:00,33.6,14.0,29.68,NW,326,0.0,6.0,45,0.00,,,0.00,weatherlink.com 1.10,2013-03-16 18:41:00,
2013-03-16 14:56:00,32.2,13.0,29.68,WNW,282,1.0,10.0,46,0.00,,,0.00,weatherlink.com 1.10,2013-03-16 18:56:00,
2013-03-16 15:11:00,34.4,15.0,29.67,SSW,209,1.0,6.0,45,0.00,,,0.00,weatherlink.com 1.10,2013-03-16 19:11:00,
2013-03-16 15:41:00,32.7,13.0,29.67,South,186,0.0,7.0,45,0.00,,,0.00,weatherlink.com 1.10,2013-03-16 19:41:00,
2013-03-16 15:56:00,33.9,12.0,29.68,NW,312,0.0,9.0,41,0.00,,,0.00,weatherlink.com 1.10,2013-03-16 19:56:00,
2013-03-16 16:11:00,34.3,13.0,29.67,WSW,256,0.0,9.0,41,0.00,,,0.00,weatherlink.com 1.10,2013-03-16 20:11:00,
2013-03-16 16:26:00,33.9,14.0,29.67,NNW,329,1.0,8.0,44,0.00,,,0.00,weatherlink.com 1.10,2013-03-16 20:26:00,
2013-03-16 16:41:00,34.3,14.0,29.67,NNW,327,3.0,7.0,43,0.00,,,0.00,weatherlink.com 1.10,2013-03-16 20:41:00,
2013-03-16 16:56:00,34.2,11.0,29.68,NNW,334,1.0,7.0,39,0.00,,,0.00,weatherlink.com 1.10,2013-03-16 20:56:00,
2013-03-16 17:11:00,33.5,11.0,29.68,SW,216,0.0,7.0,40,0.00,,,0.00,weatherlink.com 1.10,2013-03-16 21:11:00,
2013-03-16 17:56:00,33.0,12.0,29.68,SSW,201,0.0,3.0,41,0.00,,,0.00,weatherlink.com 1.10,2013-03-16 21:56:00,
2013-03-16 18:56:00,30.7,13.0,29.69,WSW,249,0.0,3.0,47,0.00,,,0.00,weatherlink.com 1.10,2013-03-16 22:56:00,
2013-03-16 19:26:00,29.6,12.0,29.71,WSW,243,0.0,3.0,48,0.00,,,0.00,weatherlink.com 1.10,2013-03-16 23:26:00,
2013-03-16 19:41:00,29.6,11.0,29.71,NW,325,0.0,2.0,47,0.00,,,0.00,weatherlink.com 1.10,2013-03-16 23:41:00,
2013-03-16 20:11:00,28.9,12.0,29.72,West,263,0.0,1.0,49,0.00,,,0.00,weatherlink.com 1.10,2013-03-17 00:11:00,
2013-03-16 20:26:00,29.0,11.0,29.73,NW,308,0.0,3.0,48,0.00,,,0.00,weatherlink.com 1.10,2013-03-17 00:26:00,
2013-03-16 20:41:00,29.0,12.0,29.74,West,266,0.0,2.0,49,0.00,,,0.00,weatherlink.com 1.10,2013-03-17 00:41:00,
2013-03-16 20:56:00,28.4,12.0,29.74,West,271,0.0,1.0,51,0.00,,,0.00,weatherlink.com 1.10,2013-03-17 00:56:00,
2013-03-16 21:11:00,28.6,12.0,29.74,WNW,296,0.0,3.0,50,0.00,,,0.00,weatherlink.com 1.10,2013-03-17 01:11:00,
2013-03-16 21:26:00,28.8,12.0,29.75,WSW,250,0.0,2.0,50,0.00,,,0.00,weatherlink.com 1.10,2013-03-17 01:26:00,
2013-03-16 21:41:00,28.7,12.0,29.76,West,276,0.0,3.0,50,0.00,,,0.00,weatherlink.com 1.10,2013-03-17 01:41:00,
2013-03-16 21:56:00,28.5,11.0,29.76,SSW,200,0.0,3.0,49,0.00,,,0.00,weatherlink.com 1.10,2013-03-17 01:56:00,
2013-03-16 22:11:00,28.4,12.0,29.77,West,270,0.0,2.0,50,0.00,,,0.00,weatherlink.com 1.10,2013-03-17 02:11:00,
2013-03-16 22:26:00,28.2,11.0,29.77,NW,315,6.0,6.0,49,0.00,,,0.00,weatherlink.com 1.10,2013-03-17 02:26:00,
2013-03-16 22:41:00,28.1,11.0,29.78,NNW,327,0.0,6.0,49,0.00,,,0.00,weatherlink.com 1.10,2013-03-17 02:41:00,
2013-03-16 22:56:00,28.0,12.0,29.79,WNW,301,0.0,8.0,51,0.00,,,0.00,weatherlink.com 1.10,2013-03-17 02:56:00,
2013-03-16 23:26:00,27.4,11.0,29.80,WNW,286,0.0,7.0,50,0.00,,,0.00,weatherlink.com 1.10,2013-03-17 03:26:00,
2013-03-16 23:42:00,27.0,11.0,29.80,WSW,251,0.0,2.0,51,0.00,,,0.00,weatherlink.com 1.10,2013-03-17 03:42:00,
2013-03-16 23:56:00,26.6,11.0,29.81,WSW,247,0.0,6.0,51,0.00,,,0.00,weatherlink.com 1.10,2013-03-17 03:56:00,